Weather History for KSAV - May, 2014

Change the Weather History Date:

Monday, May 19, 2014

  Actual Average Record
Temperature  
Mean Temperature 68 °F 74 °F  
Max Temperature 76 °F 85 °F 97 °F (1996)
Min Temperature 59 °F 63 °F 48 °F (1976)
Degree Days  
Heating Degree Days 0 0  
Month to date heating degree days 0 6  
Since 1 July heating degree days 1682 1809  
Cooling Degree Days 3 9  
Month to date cooling degree days 166 136  
Year to date cooling degree days 334 272  
Growing Degree Days 18 (Base 50)    
Moisture  
Dew Point 57 °F    
Average Humidity 70    
Maximum Humidity 90    
Minimum Humidity 50    
Precipitation  
Precipitation 0.14 in 0.09 in 4.20 in (1969)
Month to date precipitation 2.73 1.60  
Year to date precipitation 15.04 14.88  
Sea Level Pressure  
Sea Level Pressure 30.23 in    
Wind  
Wind Speed 7 mph (ENE)    
Max Wind Speed 16 mph    
Max Gust Speed 21 mph    
Visibility 10 miles    
Events Rain    
T = Trace of Precipitation, MM = Missing Value Source: NWS Daily Summary

Daily Weather History Graph

Daily Weather History Graph

Search for Another Location

Airport or City:

Trip Planner

Search our weather history database for the weather conditions in past years. The results will help you decide how hot, cold, wet, or windy it might be!

Date:

Astronomy

May. 19, 2014 Rise Set
Actual Time 6:24 AM EDT 8:18 PM EDT
Civil Twilight 5:57 AM EDT 8:45 PM EDT
Nautical Twilight 5:24 AM EDT 9:18 PM EDT
Astronomical Twilight 4:49 AM EDT 9:53 PM EDT
Moon 12:09 AM EDT (5/19) 11:15 AM EDT (5/19)
Length of Visible Light 14h 47m
Length of Day
13h 53m
Waning Gibbous, 71% of the Moon is Illuminated
May 19
Waning Gibbous
May 21
Last Quarter
May 28
New
Jun 5
First Quarter
Jun 13
Full

Hourly Weather History & Observations

Time (EDT) Temp. Dew Point Humidity Pressure Visibility Wind Dir Wind Speed Gust Speed Precip Events Conditions
12:53 AM 68.0 °F 57.0 °F 68% 30.19 in 10.0 mi NNE 5.8 mph - N/A   Mostly Cloudy
1:53 AM 64.9 °F 57.0 °F 75% 30.19 in 10.0 mi NNE 11.5 mph - N/A   Overcast
2:53 AM 64.9 °F 57.9 °F 78% 30.18 in 10.0 mi NNE 9.2 mph - N/A   Overcast
3:53 AM 63.0 °F 59.0 °F 87% 30.20 in 9.0 mi NNE 4.6 mph - 0.14 in Rain Light Rain
4:53 AM 62.1 °F 59.0 °F 90% 30.20 in 10.0 mi North 3.5 mph - 0.00 in   Scattered Clouds
5:53 AM 62.1 °F 59.0 °F 90% 30.21 in 10.0 mi NNE 5.8 mph - N/A   Mostly Cloudy
6:53 AM 62.1 °F 59.0 °F 90% 30.22 in 8.0 mi Calm Calm - 0.00 in   Mostly Cloudy
7:53 AM 63.0 °F 59.0 °F 87% 30.23 in 9.0 mi NNE 5.8 mph - N/A   Mostly Cloudy
9:53 AM 69.1 °F 59.0 °F 70% 30.25 in 10.0 mi NNE 10.4 mph - N/A   Scattered Clouds
10:53 AM 72.0 °F 57.0 °F 59% 30.26 in 10.0 mi NNE 10.4 mph - N/A   Scattered Clouds
11:53 AM 71.1 °F 57.0 °F 61% 30.27 in 10.0 mi NE 6.9 mph - N/A   Overcast
12:53 PM 73.0 °F 55.9 °F 55% 30.26 in 10.0 mi ENE 4.6 mph - N/A   Overcast
1:53 PM 73.9 °F 55.9 °F 53% 30.25 in 10.0 mi Variable 3.5 mph - N/A   Mostly Cloudy
2:53 PM 75.0 °F 55.9 °F 51% 30.24 in 10.0 mi ESE 6.9 mph - N/A   Mostly Cloudy
3:53 PM 75.0 °F 55.9 °F 51% 30.23 in 10.0 mi SE 11.5 mph - N/A   Mostly Cloudy
4:53 PM 75.0 °F 55.9 °F 51% 30.22 in 10.0 mi SE 13.8 mph - N/A   Mostly Cloudy
5:53 PM 73.9 °F 55.9 °F 53% 30.21 in 10.0 mi ESE 12.7 mph - N/A   Scattered Clouds
6:53 PM 72.0 °F 55.9 °F 57% 30.21 in 10.0 mi ESE 13.8 mph - N/A   Scattered Clouds
7:53 PM 70.0 °F 55.9 °F 61% 30.21 in 10.0 mi ESE 10.4 mph - N/A   Scattered Clouds
8:53 PM 68.0 °F 55.9 °F 65% 30.23 in 10.0 mi East 9.2 mph - N/A   Scattered Clouds
9:53 PM 66.0 °F 55.9 °F 70% 30.24 in 10.0 mi East 6.9 mph - N/A   Mostly Cloudy
10:53 PM 64.9 °F 55.9 °F 73% 30.25 in 10.0 mi ESE 3.5 mph - N/A   Clear
11:53 PM 64.9 °F 55.9 °F 73% 30.25 in 10.0 mi Calm Calm - N/A   Clear